Regional Weather Roundup
Issued by NWS Mobile, AL

Home | Current Version | Previous Version | Text Only | Print | Product List | Glossary On
Versions: 1 2 3 4 5 6 7 8 9 10 11 12 13 14 15 16 17 18 19 20 21 22 23 24 25 26 27 28 29 30 31 32 33 34 35 36 37 38 39 40 41 42 43 44 45 46 47 48 49 50
000
ASUS44 KMOB 231610
RWRMOB
REGIONAL WEATHER ROUNDUP
NATIONAL WEATHER SERVICE MOBILE AL
1000 AM CST SUN NOV 23 2014

NOTE: "FAIR" INDICATES FEW OR NO CLOUDS BELOW 12,000 FEET WITH NO
      SIGNIFICANT WEATHER AND/OR OBSTRUCTIONS TO VISIBILITY.

  * THESE STATIONS ARE PART OF THE UNIVERSITY OF SOUTH ALABAMA
    MESONET AND ARE NOT UNDER NWS OR FAA QUALITY CONTROL.

ALZ061>064-231700-
COASTAL ALABAMA

CITY           SKY/WX    TMP DP  RH WIND       PRES   REMARKS
MOBILE REG APT CLOUDY    68  67  96 SW14      29.74R THUNDER
BROOKLEY FIELD CLOUDY    69  67  93 SW7G17    29.75R
USA CAMPUS*      N/A     70  68  94 CALM      29.73F
DOG RIVER*     NOT AVBL


CITY           SKY/WX    TMP DP  RH WIND       PRES   REMARKS
MOUNT VERNON*    N/A     73  70  88 S13       29.71F
SARALAND*      NOT AVBL
BAY MINETTE*   NOT AVBL
LOXLEY*          N/A     75  72  88 S14       29.73F
ROBERTSDALE*     N/A     75  72  88 SW13      29.73F
FAIRHOPE*        N/A     73  70  88 S13       29.74F
ELBERTA*         N/A     73  72  94 S14       29.74F
FOLEY*           N/A     72  70  94 S6        29.78F
GRAND BAY*       N/A     68  64  88 S8        29.73S
DAUPHIN ISLND* NOT AVBL
BON SCOUR NWR* NOT AVBL
GULF SHORES    CLOUDY    72  69  89 S14G22    29.74F

$$

ALZ051>060-231700-
INTERIOR SOUTHWEST AND SOUTH CENTRAL ALABAMA

CITY           SKY/WX    TMP DP  RH WIND       PRES   REMARKS
GREENVILLE     LGT RAIN  66  64  94 SE7       29.78F FOG
EVERGREEN      CLOUDY    71  69  93 SE8       29.75F FOG
CASTLEBERRY*   NOT AVBL
ATMORE*          N/A     75  72  88 S26       29.76F
DIXIE*           N/A     70  70 100 SE5       29.76F
ANDALUSIA/OPP  TSTM      72  66  83 VRB6      29.78F FOG
ANDALUSIA*       N/A     66  66 100 SE8       29.80F
FLORALA APT    CLOUDY    74  71  91 S20G29    29.80F
FLORALA*         N/A     72  70  94 S6        29.78F

$$

FLZ001>006-231700-
WESTERN FLORIDA PANHANDLE

CITY           SKY/WX    TMP DP  RH WIND       PRES   REMARKS
PENSACOLA      CLOUDY    72  72 100 S18G28    29.76F
NAS PENSACOLA  CLOUDY    73  72  96 S15G23    29.74F FOG
MILTON         CLOUDY    74  72  93 S20G31    29.76F
WHTNG S FIELD  CLOUDY    76  73  91 S14G23    29.76F


CITY           SKY/WX    TMP DP  RH WIND       PRES   REMARKS
WALNUT HILL*   NOT AVBL
JAY*             N/A     75  70  83 S17       29.77F
DUKE FIELD     CLOUDY    73  72  94 S20       29.78F
CRESTVIEW      CLOUDY    74  72  93 S12G23    29.80F FOG
VALPARAISO     CLOUDY    73  71  93 S18       29.79F FOG
DESTIN         CLOUDY    73  70  90 SE15G22   29.80F FOG

$$

MSZ076-079-231700-
INTERIOR SOUTHEAST MISSISSIPPI

CITY           SKY/WX    TMP DP  RH WIND       PRES   REMARKS
LEAKESVILLE*     N/A     70  68  94 SW16      29.70F
AGRICOLA*      NOT AVBL

$$

MARINE OBSERVATIONS

STATION/POSITION TIME  TEMP    WIND        PRES    WAVE
                       AIR SEA DIR/SP/G            HT/PER
                 (UTC) (F)     (DEG/KT/KT) (MB)    (FT/S)
PASCAGOULA       1600   65     210/ 10/ 15 1007.0S
PETIT BOIS ISLND 1600   66     220/ 18/ 21 1007.8F
GRAND BAY        1500   65     160/ 13     1008.0S
KATRINA CUT      1500   67     160/ 16     1007.1F
CEDAR POINT      1500   67     160/ 17     1006.8F
E DAUPHIN ISLAND 1500   69     150/ 17/ 18 1007.0F
MIDDLE BAY LIGHT 1500   61     160/ 19       N/A
USCG MOBILE BAY  1600   68 59  200/  9/ 17 1005.5R
STATE DOCKS      1600   68 59              1006.5R
MEAHER PARK      1500   73     160/ 22     1006.1F
WEEKS BAY        1500   74                   N/A
FORT MORGAN      1600   65     260/ 21/ 26 1007.0F
12 S ORANGE BCH  1600   73 69  150/ 16/ 21 1006.2F   7/ 8
PENSACOLA BAY    1600   71 58  170/ 11/ 17 1008.0F
64 S DAUPHIN ISL 1453   69 73  260/ 27/ 33 1010.2R   6/ 8
67 S FORT MORGAN 1500   67     280/ 43     1009.8R

$$

SELECTED LOCATIONS ACROSS THE REGION

CITY           SKY/WX    TMP DP  RH WIND       PRES   REMARKS
NEW ORLEANS    CLOUDY    63  59  87 S21G28    29.69S
GULFPORT       LGT RAIN  64  62  93 SW9G24    29.75R
PASCAGOULA AP  CLOUDY    65  62  90 SW8G18    29.74R
PASCAGOULA*      N/A     64  63  94 S2        29.74S
HATTIESBURG    LGT RAIN  66  64  93 S7        29.68F
LAUREL         CLOUDY    64  61  88 S9        29.66F
MERIDIAN       RAIN      63  62  97 E7        29.65F
JACKSON        LGT RAIN  64  62  93 SE14G25   29.57F
MONTGOMERY     CLOUDY    64  63  94 E15       29.80F
TROY           CLOUDY    65  64  97 SE10      29.83F
KINSTON*       NOT AVBL
GENEVA*          N/A     70  70 100 CALM      29.86F
ASHFORD*         N/A     66  66 100 SE8       29.80F
DOTHAN         HVY RAIN  66  66 100 SE8       29.87F FOG
PANAMA CITY    CLOUDY    73  71  93 SE15G24   29.85F FOG

$$




USA.gov is the U.S. government's official web portal to all federal, state and local government web resources and services.